ARIANE 5 R/B, 43274

Orbit data source: Space-Track

ARIANE 5 R/B, 43274 is space debris in HEO originally from a launch on Thu, 05 Apr 2018 UTC launched from the French Guiana (FRGUI). Debris objects in space refer to the collection of defunct objects orbiting the Earth. Examples of debris include non-operational satellites, rocket bodies, and fragments generated from explosions, collisions, or faulty payload assembly.

Loading next visibility...
Identifier
43274, 2018-033D
Orbit
HEO
Country
Flag of FRFR
Related business
Manufacturer
ADS/Bremen
Mission
Spacecraft
Bus & Motor
SYLDA 5, Unknown motor
Mass
440 kg wet, 440 kg dry
Launch date (UTC)
2018-04-05 (8 years ago)
Launch vehicle
Unknown
Launch site
French Guiana (FRGUI)
Object type
Payload
Rocket body
Debris
Shape & HBR
Cyl, 2.8 m
Radar Cross Section
27.391 m², Large (>1 m²)

Expand to show TLE details & history
Last TLE update: 2 days ago

TLE from 2 days ago
0 ARIANE 5 R/B
1 43274U 18033D   26171.17240172  .00007246  00000-0  10837-2 0  9996
2 43274   2.5990  68.0900 7033644 352.7007   0.9859  2.61136181 72729
Epoch: 2026-06-20T04:08Z
TLE epoch observation values (Epoch: 2026-06-20T04:08:15.508Z)
Latitude
-0.00003°
Longitude
97.49221°
Altitude
240.638 km
Speed
10.126 km/s
True Right ascension
04h 31m 47s
True Declination
0° 00' 00"
Sunlit
Object was in daylight at epoch
Visualization orbit readout
Latitude
Unknown
Longitude
Unknown
Altitude
Unknown
Speed
Unknown
Apparent Right ascension
Unknown
Apparent Declination
Unknown
Sunlit
N/A
Visualization observer readout
Local Sidereal Time
21:28:13
Azimuth
Unknown
Elevation
Unknown
Doppler factor
Unknown
Orbital elements
Apogee altitude
31,574.21 km
Perigee altitude
231.146 km
Semi-major axis
22,280.815 km
Eccentricity
0.70336
Inclination
2.599°
RAAN
68.09°
Arg. of periapsis
352.7007°
True anomaly
7.94331°
Mean anomaly
0.9859°
Eccentric anomaly
3.31921°
Mean motion
0.6526 °/min
Orbital period
551.64 mins
BSTAR
0.0010837
Loading maneuver chart data...
Computing Atmospheric mass density...
Loading historical data...
Loading historical data...
Loading historical data...
Loading historical data...
Loading historical data...
Loading historical data...
Loading historical data...
Other satellites on launch #33 in the year 2018 (2018-04-05 UTC)

Documentation

Showing up to 5 results
|